SAS572 ESSA-EKCH

Flight info

Callsign SAS572
Flight time 0h 59m
Altitude 38000
Route KOGAV4L·PETEV/08 PETEV N872 ERNOV
Aircraft A320/M-SDE3FGHIRWY/LB1

Departure

Time 2026-04-24 13:46
Airport Stockholm-Arlanda Airport (ESSA)

Arrival

Time 2026-04-24 14:45
Airport Copenhagen Kastrup Airport (EKCH)
Time Latitude Longitude Altitude Speed Heading
2026-04-24 13:01 59.64845 17.92530 138 ft 0 kts 160°
2026-04-24 13:33 59.64860 17.92519 138 ft 4 kts 165°
2026-04-24 13:34 59.64886 17.92511 138 ft 4 kts 187°
2026-04-24 13:34 59.64907 17.92528 138 ft 4 kts 256°
2026-04-24 13:34 59.64908 17.92546 138 ft 1 kts 268°
2026-04-24 13:38 59.64907 17.92493 138 ft 6 kts 268°
2026-04-24 13:38 59.64909 17.92359 138 ft 14 kts 269°
2026-04-24 13:38 59.64836 17.92250 138 ft 16 kts 190°
2026-04-24 13:38 59.64719 17.92209 138 ft 18 kts 190°
2026-04-24 13:39 59.64583 17.92158 138 ft 21 kts 189°
2026-04-24 13:39 59.64436 17.92106 138 ft 20 kts 190°
2026-04-24 13:39 59.64316 17.92085 138 ft 15 kts 151°
2026-04-24 13:39 59.64260 17.92260 138 ft 16 kts 116°
2026-04-24 13:40 59.64207 17.92468 138 ft 18 kts 116°
2026-04-24 13:40 59.64145 17.92703 138 ft 20 kts 117°
2026-04-24 13:40 59.64077 17.92967 138 ft 22 kts 117°
2026-04-24 13:40 59.64007 17.93225 138 ft 18 kts 118°
2026-04-24 13:41 59.63997 17.93480 138 ft 20 kts 72°
2026-04-24 13:41 59.64072 17.93732 138 ft 23 kts 58°
2026-04-24 13:41 59.64155 17.93995 138 ft 22 kts 57°
2026-04-24 13:41 59.64242 17.94265 138 ft 25 kts 58°
2026-04-24 13:42 59.64335 17.94557 138 ft 21 kts 58°
2026-04-24 13:42 59.64418 17.94820 138 ft 24 kts 57°
2026-04-24 13:42 59.64508 17.95101 138 ft 24 kts 58°
2026-04-24 13:42 59.64608 17.95351 138 ft 24 kts 34°
2026-04-24 13:43 59.64739 17.95430 138 ft 19 kts 10°
2026-04-24 13:43 59.64873 17.95478 138 ft 21 kts 10°
2026-04-24 13:43 59.64950 17.95535 138 ft 12 kts 55°
2026-04-24 13:43 59.64946 17.95674 138 ft 5 kts 100°
2026-04-24 13:44 59.64945 17.95683 138 ft 0 kts 100°
2026-04-24 13:44 59.64940 17.95731 139 ft 9 kts 102°
2026-04-24 13:44 59.64900 17.95847 140 ft 11 kts 148°
2026-04-24 13:44 59.64826 17.95869 143 ft 6 kts 190°
2026-04-24 13:45 59.64825 17.95869 143 ft 0 kts 190°
2026-04-24 13:45 59.64818 17.95867 143 ft 4 kts 190°
2026-04-24 13:45 59.64588 17.95781 142 ft 71 kts 190°
2026-04-24 13:45 59.63891 17.95531 145 ft 130 kts 190°
2026-04-24 13:46 59.62899 17.95156 445 ft 147 kts 194°
2026-04-24 13:46 59.61916 17.94782 1040 ft 145 kts 193°
2026-04-24 13:46 59.60935 17.94337 1545 ft 147 kts 197°
2026-04-24 13:46 59.59891 17.93725 1802 ft 168 kts 200°
2026-04-24 13:47 59.58670 17.92959 1961 ft 197 kts 200°
2026-04-24 13:47 59.57444 17.91615 2391 ft 208 kts 224°
2026-04-24 13:47 59.56567 17.89233 2815 ft 225 kts 242°
2026-04-24 13:47 59.55751 17.86438 3271 ft 247 kts 242°
2026-04-24 13:48 59.54870 17.83434 4049 ft 258 kts 242°
2026-04-24 13:48 59.53957 17.80351 5024 ft 262 kts 242°
2026-04-24 13:48 59.53023 17.77221 5949 ft 269 kts 243°
2026-04-24 13:48 59.52065 17.74017 6834 ft 274 kts 243°
2026-04-24 13:49 59.51090 17.70758 7733 ft 278 kts 243°
2026-04-24 13:49 59.50027 17.67553 8668 ft 283 kts 234°
2026-04-24 13:49 59.48732 17.64609 9602 ft 286 kts 232°
2026-04-24 13:49 59.47365 17.61694 10278 ft 298 kts 227°
2026-04-24 13:50 59.45792 17.58802 10603 ft 320 kts 225°
2026-04-24 13:50 59.44090 17.55853 11213 ft 329 kts 224°
2026-04-24 13:50 59.42344 17.52908 11962 ft 333 kts 224°
2026-04-24 13:50 59.40572 17.49938 12712 ft 337 kts 224°
2026-04-24 13:51 59.38782 17.46926 13508 ft 340 kts 224°
2026-04-24 13:51 59.36983 17.43877 14222 ft 343 kts 224°
2026-04-24 13:51 59.35175 17.40794 14915 ft 346 kts 224°
2026-04-24 13:51 59.33360 17.37691 15592 ft 348 kts 224°
2026-04-24 13:52 59.31552 17.34602 16260 ft 350 kts 224°
2026-04-24 13:52 59.29702 17.31451 16947 ft 353 kts 224°
2026-04-24 13:52 59.27842 17.28285 17632 ft 356 kts 225°
2026-04-24 13:52 59.25969 17.25100 18301 ft 359 kts 225°
2026-04-24 13:53 59.24072 17.21884 18911 ft 362 kts 224°
2026-04-24 13:53 59.22165 17.18655 19511 ft 364 kts 225°
2026-04-24 13:53 59.20243 17.15399 20125 ft 367 kts 225°
2026-04-24 13:53 59.18305 17.12119 20740 ft 370 kts 225°
2026-04-24 13:54 59.16350 17.08820 21322 ft 373 kts 225°
2026-04-24 13:54 59.14381 17.05508 21899 ft 376 kts 225°
2026-04-24 13:54 59.12397 17.02169 22483 ft 378 kts 225°
2026-04-24 13:54 59.10399 16.98811 23076 ft 381 kts 224°
2026-04-24 13:55 59.08382 16.95433 23648 ft 384 kts 224°
2026-04-24 13:55 59.06349 16.92041 24135 ft 386 kts 224°
2026-04-24 13:55 59.04306 16.88633 24618 ft 389 kts 224°
2026-04-24 13:55 59.02247 16.85199 25097 ft 391 kts 224°
2026-04-24 13:56 59.00175 16.81756 25570 ft 393 kts 224°
2026-04-24 13:56 58.98093 16.78305 26029 ft 395 kts 224°
2026-04-24 13:56 58.95995 16.74834 26491 ft 397 kts 224°
2026-04-24 13:56 58.93889 16.71350 26922 ft 400 kts 224°
2026-04-24 13:57 58.91769 16.67845 27368 ft 402 kts 224°
2026-04-24 13:57 58.89639 16.64326 27806 ft 404 kts 225°
2026-04-24 13:57 58.87494 16.60779 28222 ft 406 kts 225°
2026-04-24 13:57 58.85342 16.57230 28633 ft 408 kts 225°
2026-04-24 13:58 58.83907 16.54869 28905 ft 410 kts 225°
2026-04-24 13:58 58.81730 16.51292 29309 ft 412 kts 225°
2026-04-24 13:58 58.78829 16.46548 29859 ft 415 kts 225°
2026-04-24 13:58 58.76616 16.42948 30213 ft 417 kts 224°
2026-04-24 13:59 58.75119 16.40513 30429 ft 419 kts 224°
2026-04-24 13:59 58.72883 16.36875 30746 ft 422 kts 224°
2026-04-24 13:59 58.70637 16.33214 31053 ft 424 kts 224°
2026-04-24 13:59 58.68378 16.29540 31358 ft 427 kts 224°
2026-04-24 14:00 58.66102 16.25847 31788 ft 426 kts 224°
2026-04-24 14:00 58.63839 16.22182 32229 ft 426 kts 224°
2026-04-24 14:00 58.61568 16.18520 32646 ft 426 kts 224°
2026-04-24 14:00 58.59291 16.14857 33065 ft 427 kts 224°
2026-04-24 14:01 58.57015 16.11203 33481 ft 427 kts 224°
2026-04-24 14:01 58.54739 16.07550 33905 ft 427 kts 224°
2026-04-24 14:01 58.52461 16.03897 34257 ft 427 kts 224°
2026-04-24 14:01 58.50181 16.00246 34593 ft 428 kts 224°
2026-04-24 14:02 58.47896 15.96597 34919 ft 428 kts 224°
2026-04-24 14:02 58.45608 15.92955 35247 ft 428 kts 224°
2026-04-24 14:02 58.43318 15.89313 35567 ft 428 kts 224°
2026-04-24 14:02 58.41025 15.85671 35874 ft 429 kts 224°
2026-04-24 14:03 58.38737 15.82038 36185 ft 429 kts 224°
2026-04-24 14:03 58.36442 15.78401 36487 ft 429 kts 224°
2026-04-24 14:03 58.34170 15.74809 36775 ft 429 kts 224°
2026-04-24 14:03 58.31840 15.71133 37067 ft 429 kts 224°
2026-04-24 14:04 58.29569 15.67554 37344 ft 430 kts 224°
2026-04-24 14:04 58.27263 15.63928 37620 ft 430 kts 224°
2026-04-24 14:04 58.24951 15.60300 37891 ft 431 kts 224°
2026-04-24 14:04 58.22641 15.56682 37964 ft 431 kts 224°
2026-04-24 14:05 58.18006 15.49440 37965 ft 431 kts 224°
2026-04-24 14:05 58.13374 15.42214 37968 ft 431 kts 224°
2026-04-24 14:06 58.08735 15.35004 37970 ft 431 kts 224°
2026-04-24 14:06 58.04094 15.27840 37973 ft 431 kts 224°
2026-04-24 14:07 57.99447 15.20676 37963 ft 431 kts 224°
2026-04-24 14:07 57.94793 15.13533 37972 ft 432 kts 224°
2026-04-24 14:08 57.90129 15.06407 37969 ft 432 kts 224°
2026-04-24 14:08 57.85459 14.99273 37973 ft 432 kts 224°
2026-04-24 14:09 57.80791 14.92166 37973 ft 432 kts 224°
2026-04-24 14:09 57.76119 14.85090 37976 ft 432 kts 223°
2026-04-24 14:10 57.71434 14.78028 37979 ft 432 kts 223°
2026-04-24 14:10 57.66758 14.70984 37972 ft 432 kts 223°
2026-04-24 14:11 57.62072 14.63950 37972 ft 432 kts 223°
2026-04-24 14:12 57.55029 14.53445 37972 ft 432 kts 223°
2026-04-24 14:12 57.50328 14.46468 37761 ft 432 kts 223°
2026-04-24 14:12 57.47981 14.42985 37487 ft 431 kts 223°
2026-04-24 14:13 57.45640 14.39514 37214 ft 430 kts 224°
2026-04-24 14:13 57.43299 14.36052 36946 ft 430 kts 224°
2026-04-24 14:13 57.40962 14.32602 36670 ft 429 kts 224°
2026-04-24 14:13 57.38630 14.29162 36149 ft 428 kts 225°
2026-04-24 14:14 57.36314 14.25759 35754 ft 423 kts 225°
2026-04-24 14:14 57.34012 14.22388 35316 ft 420 kts 225°
2026-04-24 14:14 57.29466 14.15737 34425 ft 414 kts 226°
2026-04-24 14:15 57.27215 14.12438 33970 ft 412 kts 227°
2026-04-24 14:15 57.24977 14.09161 33467 ft 408 kts 227°
2026-04-24 14:15 57.22761 14.05930 33012 ft 404 kts 227°
2026-04-24 14:15 57.20564 14.02742 32572 ft 399 kts 227°
2026-04-24 14:16 57.18390 13.99595 32140 ft 395 kts 227°
2026-04-24 14:16 57.16241 13.96490 31702 ft 391 kts 227°
2026-04-24 14:16 57.14108 13.93411 31282 ft 387 kts 227°
2026-04-24 14:17 57.09914 13.87354 30463 ft 380 kts 228°
2026-04-24 14:17 57.07843 13.84367 30073 ft 376 kts 228°
2026-04-24 14:17 57.03766 13.78488 29264 ft 368 kts 228°
2026-04-24 14:18 57.01757 13.75603 28894 ft 365 kts 228°
2026-04-24 14:18 56.99769 13.72754 28536 ft 361 kts 228°
2026-04-24 14:18 56.97792 13.69934 28184 ft 359 kts 228°
2026-04-24 14:18 56.95831 13.67141 27820 ft 356 kts 228°
2026-04-24 14:19 56.94541 13.65303 27587 ft 354 kts 228°
2026-04-24 14:19 56.91959 13.61620 27106 ft 350 kts 227°
2026-04-24 14:19 56.90048 13.58898 26743 ft 347 kts 227°
2026-04-24 14:19 56.88149 13.56198 26378 ft 344 kts 227°
2026-04-24 14:20 56.86265 13.53525 26012 ft 341 kts 227°
2026-04-24 14:20 56.84395 13.50871 25637 ft 339 kts 227°
2026-04-24 14:20 56.82539 13.48238 25264 ft 337 kts 227°
2026-04-24 14:20 56.80691 13.45621 24889 ft 335 kts 227°
2026-04-24 14:21 56.78853 13.43024 24501 ft 334 kts 227°
2026-04-24 14:21 56.77017 13.40434 24122 ft 333 kts 227°
2026-04-24 14:21 56.75183 13.37850 23745 ft 333 kts 227°
2026-04-24 14:21 56.73355 13.35279 23322 ft 332 kts 227°
2026-04-24 14:22 56.71556 13.32750 22927 ft 330 kts 226°
2026-04-24 14:22 56.69746 13.30212 22545 ft 327 kts 226°
2026-04-24 14:22 56.66162 13.25195 21788 ft 323 kts 226°
2026-04-24 14:23 56.64388 13.22713 21409 ft 321 kts 226°
2026-04-24 14:23 56.62621 13.20240 21030 ft 320 kts 226°
2026-04-24 14:23 56.60859 13.17781 20650 ft 319 kts 226°
2026-04-24 14:23 56.59104 13.15339 20277 ft 318 kts 226°
2026-04-24 14:24 56.57353 13.12902 19897 ft 317 kts 225°
2026-04-24 14:24 56.55603 13.10469 19520 ft 316 kts 225°
2026-04-24 14:24 56.53838 13.08022 19135 ft 315 kts 225°
2026-04-24 14:24 56.52096 13.05606 18756 ft 315 kts 225°
2026-04-24 14:25 56.50944 13.04008 18505 ft 314 kts 225°
2026-04-24 14:25 56.48647 13.00824 17955 ft 314 kts 225°
2026-04-24 14:25 56.46897 12.98404 17571 ft 312 kts 225°
2026-04-24 14:25 56.45179 12.96030 17190 ft 310 kts 224°
2026-04-24 14:26 56.43494 12.93708 16833 ft 308 kts 224°
2026-04-24 14:26 56.41790 12.91367 16464 ft 307 kts 224°
2026-04-24 14:26 56.40091 12.89036 16087 ft 306 kts 224°
2026-04-24 14:26 56.38394 12.86710 15721 ft 305 kts 224°
2026-04-24 14:27 56.36703 12.84393 15366 ft 305 kts 224°
2026-04-24 14:27 56.35018 12.82082 15002 ft 304 kts 224°
2026-04-24 14:27 56.33334 12.79777 14641 ft 304 kts 224°
2026-04-24 14:27 56.31664 12.77491 14273 ft 303 kts 224°
2026-04-24 14:28 56.29981 12.75192 13914 ft 303 kts 224°
2026-04-24 14:28 56.28302 12.72902 13514 ft 303 kts 224°
2026-04-24 14:28 56.26624 12.70616 13151 ft 301 kts 223°
2026-04-24 14:28 56.25028 12.68447 12798 ft 300 kts 224°
2026-04-24 14:29 56.23275 12.66070 12410 ft 298 kts 223°
2026-04-24 14:29 56.21622 12.63830 12050 ft 297 kts 223°
2026-04-24 14:29 56.19969 12.61590 11691 ft 297 kts 223°
2026-04-24 14:29 56.18289 12.59424 11328 ft 300 kts 216°
2026-04-24 14:30 56.17038 12.58342 11081 ft 305 kts 205°
2026-04-24 14:30 56.14232 12.57416 10770 ft 312 kts 185°
2026-04-24 14:30 56.12063 12.57439 10554 ft 312 kts 184°
2026-04-24 14:30 56.09896 12.57465 10330 ft 311 kts 184°
2026-04-24 14:31 56.07762 12.57485 10114 ft 310 kts 184°
2026-04-24 14:31 56.05612 12.57504 9895 ft 309 kts 184°
2026-04-24 14:31 56.03468 12.57521 9663 ft 308 kts 184°
2026-04-24 14:31 56.01328 12.57538 9431 ft 307 kts 183°
2026-04-24 14:32 55.99192 12.57555 9226 ft 306 kts 183°
2026-04-24 14:32 55.97068 12.57575 9012 ft 305 kts 183°
2026-04-24 14:32 55.94945 12.57597 8796 ft 304 kts 183°
2026-04-24 14:32 55.92809 12.57622 8579 ft 303 kts 183°
2026-04-24 14:33 55.90703 12.57646 8361 ft 302 kts 183°
2026-04-24 14:33 55.88602 12.57663 8149 ft 301 kts 184°
2026-04-24 14:33 55.86551 12.57213 7934 ft 296 kts 198°
2026-04-24 14:33 55.84618 12.56057 7724 ft 293 kts 204°
2026-04-24 14:34 55.82710 12.54809 7521 ft 291 kts 204°
2026-04-24 14:34 55.80809 12.53572 7311 ft 290 kts 204°
2026-04-24 14:34 55.78934 12.52360 7111 ft 290 kts 204°
2026-04-24 14:34 55.77041 12.51141 6900 ft 289 kts 204°
2026-04-24 14:35 55.75148 12.49920 6701 ft 288 kts 203°
2026-04-24 14:35 55.73268 12.48709 6500 ft 288 kts 204°
2026-04-24 14:35 55.71388 12.47499 6270 ft 287 kts 203°
2026-04-24 14:35 55.69602 12.46349 6086 ft 287 kts 203°
2026-04-24 14:36 55.67726 12.45142 5879 ft 286 kts 203°
2026-04-24 14:36 55.65853 12.43942 5680 ft 285 kts 203°
2026-04-24 14:36 55.63989 12.42749 5469 ft 285 kts 203°
2026-04-24 14:36 55.62127 12.41559 5234 ft 284 kts 203°
2026-04-24 14:37 55.60324 12.40224 5068 ft 276 kts 213°
2026-04-24 14:37 55.58797 12.38315 4937 ft 262 kts 226°
2026-04-24 14:37 55.57898 12.36929 4852 ft 256 kts 226°
2026-04-24 14:37 55.56542 12.34892 4720 ft 248 kts 225°
2026-04-24 14:38 55.55264 12.32978 4491 ft 243 kts 225°
2026-04-24 14:38 55.53971 12.31051 4192 ft 243 kts 225°
2026-04-24 14:38 55.52687 12.29149 3984 ft 242 kts 225°
2026-04-24 14:38 55.51274 12.27531 3724 ft 246 kts 202°
2026-04-24 14:39 55.49534 12.27194 3480 ft 256 kts 180°
2026-04-24 14:39 55.47801 12.27769 3217 ft 254 kts 154°
2026-04-24 14:39 55.46376 12.29520 3032 ft 246 kts 136°
2026-04-24 14:39 55.45523 12.31306 2995 ft 231 kts 116°
2026-04-24 14:40 55.45011 12.33807 3000 ft 212 kts 90°
2026-04-24 14:40 55.45079 12.36276 3003 ft 195 kts 67°
2026-04-24 14:40 55.45619 12.38376 3004 ft 184 kts 47°
2026-04-24 14:40 55.46364 12.40200 3009 ft 181 kts 42°
2026-04-24 14:41 55.47218 12.41787 3030 ft 178 kts 36°
2026-04-24 14:41 55.48128 12.43262 2913 ft 175 kts 34°
2026-04-24 14:41 55.49020 12.44656 2723 ft 168 kts 34°
2026-04-24 14:41 55.49876 12.45978 2510 ft 158 kts 33°
2026-04-24 14:42 55.50683 12.47221 2306 ft 150 kts 33°
2026-04-24 14:42 55.51455 12.48406 2116 ft 144 kts 34°
2026-04-24 14:42 55.52186 12.49529 1937 ft 136 kts 33°
2026-04-24 14:42 55.52896 12.50618 1744 ft 134 kts 33°
2026-04-24 14:43 55.53597 12.51694 1561 ft 133 kts 32°
2026-04-24 14:43 55.54292 12.52762 1381 ft 132 kts 33°
2026-04-24 14:43 55.54985 12.53827 1201 ft 131 kts 33°
2026-04-24 14:43 55.55680 12.54907 1008 ft 135 kts 34°
2026-04-24 14:44 55.56376 12.55983 789 ft 131 kts 34°
2026-04-24 14:44 55.57073 12.57013 613 ft 131 kts 37°
2026-04-24 14:44 55.57741 12.58060 419 ft 126 kts 34°
2026-04-24 14:44 55.58406 12.59090 279 ft 126 kts 37°
2026-04-24 14:45 55.59069 12.60108 114 ft 126 kts 38°
2026-04-24 14:45 55.59704 12.61097 30 ft 111 kts 37°
2026-04-24 14:45 55.60194 12.61850 27 ft 71 kts 40°
2026-04-24 14:45 55.60436 12.62226 26 ft 29 kts 35°
2026-04-24 14:46 55.60588 12.62329 29 ft 21 kts 14°
2026-04-24 14:46 55.60694 12.62368 25 ft 16 kts 12°
2026-04-24 14:46 55.60807 12.62431 27 ft 18 kts 32°
2026-04-24 14:46 55.60912 12.62583 24 ft 21 kts 41°
2026-04-24 14:47 55.61026 12.62762 24 ft 23 kts 41°
2026-04-24 14:47 55.61134 12.62928 24 ft 21 kts 45°
2026-04-24 14:47 55.61249 12.63108 24 ft 23 kts 41°
2026-04-24 14:47 55.61379 12.63306 24 ft 26 kts 40°
2026-04-24 14:48 55.61498 12.63492 24 ft 23 kts 40°
2026-04-24 14:48 55.61621 12.63682 24 ft 19 kts 41°
2026-04-24 14:48 55.61723 12.63840 24 ft 20 kts 41°
2026-04-24 14:48 55.61834 12.64013 24 ft 23 kts 40°
2026-04-24 14:49 55.61960 12.64144 24 ft 21 kts 25°
2026-04-24 14:49 55.62066 12.64232 24 ft 15 kts 26°
2026-04-24 14:49 55.62150 12.64304 23 ft 14 kts 25°
2026-04-24 14:49 55.62252 12.64384 22 ft 17 kts 18°
2026-04-24 14:50 55.62365 12.64437 24 ft 16 kts 14°
2026-04-24 14:50 55.62464 12.64484 24 ft 14 kts 13°
2026-04-24 14:50 55.62528 12.64397 25 ft 14 kts 303°
2026-04-24 14:50 55.62579 12.64265 24 ft 13 kts 309°
2026-04-24 14:51 55.62635 12.64289 24 ft 10 kts 28°
2026-04-24 14:51 55.62707 12.64343 26 ft 7 kts 23°
2026-04-24 14:51 55.62720 12.64388 24 ft 5 kts 93°
2026-04-24 14:51 55.62715 12.64445 24 ft 0 kts 101°
2026-04-24 14:52 55.62713 12.64456 24 ft 1 kts 101°
2026-04-24 14:52 55.62713 12.64460 24 ft 0 kts 101°
2026-04-24 14:58 55.62713 12.64459 24 ft 0 kts 101°